Theta_e
281 281 281 281 280 280 279 280 279 279 280 276 273 272 278 279 276 275 280 280 278 280 282 282 281 282 283 283 284 284 283 281 279 279 279 279 278 278 278 278 278 278 278 278 278 277 278 277 277 278 278 278 278 278 278 278 278 279 278 279 278 277 277 277 277 277 278 278 279 278 278 278 278 279 278 278 278 277 277 277 278 277 277 277 277 278 278
276 279 278 279 279 278 279 279 279 280 279 278 278 277 279 278 277 279 279 279 278 281 281 281 283 284 282 280 279 279 280 279 280 279 279 278 278 278 278 279 279 279 279 278 278 278 278 278 278 278 278 278 279 279 279 279 278 278 279 278 277 277 277 277 277 277 278 278 278 278 278 278 278 278 278 278 278 278 278 278 277 277 277 277 277 277 277
269 275 278 278 277 277 275 277 277 278 278 277 278 279 278 278 277 279 278 278 278 283 282 281 282 280 279 279 278 279 279 279 279 279 278 278 278 278 278 278 277 277 277 277 277 277 278 278 278 279 279 278 278 277 277 278 278 278 277 277 276 276 276 277 277 277 277 278 278 277 278 278 278 278 278 278 277 277 277 277 277 277 277 276 276 276 276
266 270 273 274 273 275 274 275 276 276 276 275 277 276 278 277 276 277 276 274 276 279 280 280 278 278 277 277 277 277 278 278 278 278 277 276 276 276 277 277 277 277 277 276 276 277 277 277 277 277 277 277 277 277 277 277 277 276 276 275 276 276 276 276 276 276 277 277 277 277 277 277 277 277 277 276 276 276 276 276 277 277 276 276 276 276 276
268 274 272 272 272 271 270 273 277 278 278 278 278 279 279 279 279 275 273 274 279 279 280 280 278 275 275 275 275 275 275 275 275 276 276 275 275 275 276 278 278 278 278 277 277 276 276 276 277 276 276 276 276 276 276 276 275 276 275 275 275 275 275 275 276 276 276 276 276 276 276 275 275 275 275 275 275 275 275 276 276 275 275 276 275 276 275
267 269 270 272 270 265 267 276 279 279 277 278 276 277 279 280 280 278 280 277 278 275 278 278 277 276 275 274 275 274 275 275 275 275 274 274 275 276 276 277 277 277 276 276 276 276 276 276 276 276 276 276 276 276 275 275 275 275 275 275 275 274 274 274 275 275 275 274 274 274 274 273 273 273 272 272 273 274 274 274 274 274 274 274 274 274 274
268 266 268 269 266 267 276 279 281 280 279 278 278 278 279 278 278 278 277 275 276 278 278 279 277 276 274 274 274 274 273 275 276 276 276 276 276 276 276 277 277 276 276 275 275 275 276 276 276 275 275 275 274 274 274 274 274 274 274 273 273 273 273 273 273 273 272 272 271 271 271 271 270 270 271 271 272 272 272 272 272 272 272 272 272 272 273
273 271 271 264 265 276 277 277 275 278 278 277 277 274 276 276 277 277 275 276 276 277 276 274 274 274 274 274 274 274 274 275 277 275 276 276 276 276 276 277 277 275 275 276 275 276 276 275 274 274 273 273 273 273 273 273 272 271 272 271 271 271 271 271 271 271 270 269 269 268 268 268 268 268 269 269 268 269 269 269 269 270 270 270 270 270 270
268 271 271 270 275 274 276 276 276 277 276 275 273 270 273 276 275 275 275 275 274 273 274 274 274 274 274 273 275 275 275 277 276 277 276 276 276 277 276 276 276 276 276 276 276 275 274 273 273 272 272 272 271 271 270 270 269 269 269 268 269 269 269 269 269 268 268 267 266 266 266 266 266 266 266 265 265 266 265 266 266 266 266 267 268 268 268
274 267 267 266 263 264 269 272 276 276 277 276 276 270 267 271 268 271 274 273 272 271 272 273 274 273 271 270 273 276 278 276 277 276 277 277 276 276 276 275 275 275 275 275 275 274 272 272 271 271 271 270 269 268 268 268 266 267 266 266 267 266 267 267 267 266 265 265 264 264 264 263 263 263 263 263 263 264 263 263 263 264 264 265 265 266 266
272 267 266 265 262 263 268 269 272 274 273 274 272 267 264 269 269 268 273 269 270 272 273 272 273 271 266 269 273 275 274 275 276 277 276 275 275 275 276 276 276 275 275 274 273 272 271 270 270 270 268 267 266 266 266 266 265 264 264 266 265 265 265 265 265 264 264 263 263 262 262 262 262 261 261 261 262 262 262 262 262 263 263 262 263 263 264
271 268 265 263 264 262 267 269 272 274 275 275 272 262 259 272 274 273 273 273 272 272 272 273 272 271 265 269 273 275 276 275 275 276 276 274 275 275 275 275 275 275 274 272 271 270 269 269 268 267 266 265 264 265 265 265 264 263 264 264 264 264 264 264 263 263 262 262 262 261 261 261 261 261 261 261 261 261 261 261 261 261 261 261 261 261 262
272 273 268 269 268 275 271 273 275 275 276 274 264 262 267 271 273 274 274 274 274 274 273 273 269 274 275 276 276 275 274 275 275 274 275 274 276 276 275 275 276 273 272 271 270 269 269 268 267 266 265 263 263 263 264 263 262 263 264 264 263 263 263 262 262 261 261 261 260 260 260 260 260 260 260 260 260 260 259 260 260 260 260 260 260 261 261
269 270 269 269 271 272 273 276 277 276 273 263 264 273 273 274 274 274 275 274 274 274 275 274 275 276 276 276 275 274 274 275 275 275 275 275 274 274 274 274 272 271 270 268 268 267 266 266 265 264 263 261 262 261 261 261 261 263 263 262 262 261 261 261 260 260 259 260 260 260 260 260 259 259 260 260 259 259 259 259 259 259 259 259 259 260 261
268 267 266 264 262 269 276 275 275 276 268 268 274 274 275 276 276 276 274 275 275 275 275 275 275 275 275 274 275 275 274 274 275 274 275 275 274 272 271 270 270 269 267 267 266 266 266 264 264 264 261 259 260 260 260 261 262 262 262 261 261 260 260 259 259 259 259 258 259 259 259 259 258 258 259 258 259 259 258 258 258 258 258 259 259 259 259
260 265 263 263 266 271 276 277 269 272 277 276 275 276 275 276 275 275 277 276 276 276 276 275 275 275 275 274 273 273 273 273 273 274 274 273 272 271 270 269 268 266 266 265 265 264 264 263 262 262 260 259 259 259 260 262 262 261 260 260 259 259 259 258 258 258 258 258 258 258 258 258 258 258 258 258 258 258 258 258 258 258 258 258 258 258 258
266 264 264 269 274 276 277 278 277 275 278 278 277 277 277 276 276 277 277 277 277 276 276 276 276 275 274 275 275 275 275 275 274 274 274 273 271 270 268 267 266 264 264 263 263 262 263 261 261 260 260 258 258 257 260 260 260 259 259 258 258 258 257 257 257 258 258 258 258 257 258 258 257 258 257 257 257 258 258 258 257 257 257 258 257 257 258
273 272 272 275 274 275 276 278 279 278 278 277 277 277 276 276 278 278 277 277 278 277 276 276 275 275 276 275 274 274 274 274 273 273 271 269 268 267 266 264 264 263 262 260 260 260 261 261 260 259 259 258 256 259 260 259 259 258 258 257 257 257 257 257 258 258 257 257 257 258 258 258 258 258 257 257 257 257 257 257 257 257 257 257 257 257 257
270 266 273 274 275 276 276 277 278 278 277 279 278 276 277 278 277 277 278 279 278 277 276 276 276 276 275 275 275 274 274 273 272 272 270 269 267 266 264 265 263 261 260 260 259 259 258 259 259 258 257 257 258 259 258 259 259 257 256 257 257 257 257 257 257 257 257 257 258 258 258 258 258 258 258 257 257 257 257 256 256 257 257 257 257 258 258
272 271 274 273 275 276 278 277 276 277 278 278 277 278 278 278 278 278 278 277 277 277 275 276 276 276 276 275 275 274 273 273 272 271 269 267 265 264 264 263 260 259 259 260 258 258 258 259 258 257 257 256 257 257 257 258 256 256 256 257 257 257 257 257 257 257 257 258 258 257 257 257 257 257 257 257 256 256 256 257 257 257 258 258 259 259 259
273 274 275 276 277 277 276 276 276 277 278 278 278 278 278 278 277 277 277 277 278 277 277 277 276 275 275 275 275 274 273 271 270 270 268 266 264 263 263 260 260 260 260 258 258 257 257 258 257 256 255 256 256 257 258 257 256 255 256 257 257 256 257 257 257 258 257 257 257 257 256 257 257 257 256 256 257 258 260 260 260 260 260 262 263 264 264
270 269 273 274 267 270 275 277 277 277 277 277 277 277 276 276 276 276 276 276 276 277 277 277 276 275 275 274 273 273 273 272 270 267 266 263 262 261 261 260 259 259 258 257 257 256 257 257 256 255 255 256 256 258 256 255 255 255 256 256 256 256 257 257 257 257 257 257 257 257 256 256 256 257 261 265 264 261 261 265 268 270 269 265 266 266 265
270 276 277 277 277 277 278 278 278 277 278 277 277 277 277 277 277 277 276 276 274 274 274 275 275 275 275 273 272 271 270 269 268 267 265 264 262 261 260 259 258 257 257 257 256 255 256 256 255 255 256 256 256 256 257 257 256 256 255 256 256 256 257 256 257 257 257 256 257 257 257 257 256 256 256 258 265 267 267 267 268 270 270 271 271 271 268
277 279 278 277 276 276 278 278 278 278 277 277 276 277 278 278 278 277 277 277 276 275 275 272 273 274 273 271 270 271 268 265 264 263 262 262 262 260 259 259 258 257 256 256 256 256 256 256 255 255 255 256 255 255 255 256 256 255 255 256 256 256 256 257 257 257 257 257 257 256 257 257 256 256 256 256 257 264 267 267 268 269 270 270 271 271 271
277 280 280 278 277 277 278 278 277 277 277 277 276 276 277 277 277 277 276 277 277 277 274 273 270 270 271 268 269 269 268 265 264 263 262 261 262 260 258 257 256 256 257 257 257 256 255 254 254 254 255 255 255 255 256 256 255 255 256 256 256 256 256 256 257 257 257 256 256 256 256 256 256 256 256 256 256 257 260 266 268 268 269 270 270 270 271
280 280 281 279 276 277 279 278 278 277 276 276 275 275 277 277 278 276 276 277 276 274 274 273 270 267 268 267 266 265 263 262 262 262 260 258 257 257 257 257 257 257 256 255 255 254 253 253 254 254 254 255 255 256 256 256 256 255 255 255 256 256 256 256 256 256 256 256 256 257 257 257 257 257 257 257 257 257 257 258 260 263 267 268 269 270 270
280 280 278 275 276 278 279 277 278 281 279 277 276 277 276 273 272 270 267 266 266 267 269 269 268 265 262 263 262 262 263 261 260 260 258 257 257 257 257 257 256 255 255 254 253 254 255 254 254 254 255 255 255 255 255 255 254 254 255 255 256 256 257 257 256 256 256 257 257 257 257 257 257 257 257 258 258 258 258 258 258 258 259 261 265 269 267
279 279 278 276 276 277 279 280 279 279 278 277 275 274 268 266 265 264 265 266 264 262 262 261 263 262 262 260 261 260 260 259 259 258 258 257 257 256 256 255 255 254 254 253 253 253 254 254 252 254 255 256 255 254 254 254 254 254 255 256 255 256 256 256 256 256 256 256 257 257 257 257 258 258 259 259 258 258 259 259 259 259 259 260 261 266 269
278 277 278 279 280 280 278 272 271 272 272 267 267 267 265 266 264 265 267 268 266 263 262 260 260 260 263 260 260 260 259 258 258 257 257 257 256 255 255 254 253 253 253 253 253 252 252 252 252 254 255 255 255 253 254 253 254 254 255 255 256 256 256 256 256 256 257 257 257 258 259 259 259 258 258 259 259 259 259 259 259 259 260 260 261 261 264
279 279 277 276 276 275 275 275 275 273 271 267 267 265 266 268 266 266 267 265 264 265 265 262 261 261 261 260 259 259 258 258 257 257 256 256 255 254 254 254 252 252 251 251 252 252 252 252 253 254 255 255 255 254 253 252 254 254 255 255 255 255 256 256 257 257 257 257 258 259 258 258 258 258 258 258 258 259 259 259 259 259 259 260 261 260 260
276 274 273 273 272 271 273 275 275 273 269 264 266 266 263 264 267 267 266 265 265 265 264 262 262 261 259 259 256 255 256 255 255 254 253 253 253 253 252 252 252 251 252 253 251 251 252 252 253 254 255 254 254 253 252 253 254 254 255 256 255 257 258 258 259 258 257 258 257 257 257 257 258 258 258 258 258 258 258 258 259 259 259 259 259 260 260
274 269 267 268 267 266 269 268 267 267 266 263 262 263 264 265 266 267 267 265 266 266 263 260 259 258 256 253 253 254 253 253 252 252 252 252 252 252 252 252 252 253 252 253 253 253 253 252 253 254 254 254 254 253 254 254 253 254 254 255 255 255 256 257 257 257 258 257 257 256 257 257 257 257 257 257 257 258 258 258 258 258 259 259 259 259 260
271 268 266 265 263 263 265 265 266 267 264 263 265 266 265 263 263 263 264 265 263 262 261 259 256 254 253 253 252 252 251 251 251 252 251 251 251 252 252 252 252 252 252 253 253 253 253 253 254 255 254 255 253 253 254 254 254 253 254 254 254 255 256 257 257 256 256 256 256 256 256 257 257 257 257 257 258 258 258 258 258 258 258 258 258 259 260
275 275 277 275 273 272 271 269 267 267 265 264 262 262 261 260 259 259 259 259 259 258 258 256 253 252 253 253 252 252 252 250 250 251 252 252 252 252 251 252 251 251 252 253 253 254 254 255 254 254 254 254 254 254 254 253 253 253 253 254 254 254 254 255 255 255 255 255 255 256 256 256 256 256 257 257 257 257 257 257 258 258 258 258 258 258 261
272 267 261 259 259 261 264 267 267 266 266 265 260 257 257 256 256 256 255 257 257 256 254 254 253 253 253 253 252 251 251 252 252 252 252 251 252 252 252 249 249 249 249 251 253 253 254 253 251 251 252 253 253 252 253 253 251 252 253 254 254 254 254 255 254 254 254 255 255 255 255 255 256 257 257 257 256 257 256 257 257 257 257 257 257 258 258
262 259 256 254 253 252 253 254 258 261 264 264 262 258 255 254 254 254 255 254 255 256 256 255 253 252 251 251 251 250 251 251 250 250 251 251 251 251 251 249 248 249 249 250 253 253 253 248 254 256 255 254 254 252 252 251 251 252 254 254 254 254 254 254 254 254 254 254 254 255 255 256 257 256 256 256 256 255 256 256 256 257 257 257 257 257 257
257 260 255 254 252 252 252 251 252 257 259 257 256 255 253 253 253 251 252 253 254 254 253 252 251 250 252 252 252 251 251 251 251 251 251 251 250 249 248 247 248 249 249 249 250 246 246 247 255 257 255 250 250 249 253 256 253 253 253 253 252 252 253 252 253 253 253 254 254 254 255 255 254 254 255 255 255 255 256 255 256 257 257 257 257 257 257
254 255 253 253 251 251 250 249 249 250 251 250 249 250 250 251 251 250 250 251 251 252 252 251 250 250 250 252 251 251 251 250 248 247 246 247 246 247 247 247 249 248 249 250 247 247 247 251 256 253 249 249 249 249 253 256 256 255 253 252 252 252 252 252 253 253 253 253 254 253 253 253 253 253 253 254 254 254 255 256 256 256 256 256 256 256 256
253 252 251 251 250 250 250 250 249 248 249 250 249 248 248 250 249 249 249 249 249 251 250 250 249 250 250 249 250 248 249 248 246 245 246 247 246 245 248 249 249 250 251 250 249 251 252 252 252 249 249 250 249 251 253 255 256 254 252 251 250 251 252 252 252 253 253 253 253 253 253 253 253 253 253 253 254 255 255 255 256 256 255 255 255 255 255
253 251 250 250 250 250 250 250 249 248 247 247 249 248 248 250 248 250 249 249 250 251 250 250 249 248 248 248 248 248 248 248 246 245 246 246 245 245 247 248 249 250 251 253 253 252 253 255 252 247 248 248 250 250 252 255 255 254 252 250 250 251 251 252 251 251 252 251 252 253 252 252 252 253 253 253 253 253 253 254 254 254 255 254 254 255 255
251 251 250 250 250 250 250 251 250 248 247 247 247 248 250 249 249 248 247 247 246 247 249 247 247 248 248 247 247 247 246 247 245 245 244 243 244 246 247 248 247 245 247 248 248 249 253 254 250 247 248 248 249 254 253 255 254 251 251 250 250 250 250 251 251 251 251 251 251 250 250 251 252 251 252 252 252 252 252 253 253 253 253 253 253 254 254
251 251 251 251 251 250 250 250 250 250 246 246 248 248 248 248 249 247 246 246 246 245 245 246 249 248 247 247 246 246 246 246 245 246 244 246 247 246 247 249 249 251 253 253 253 252 250 248 250 253 248 250 251 255 255 255 253 251 250 249 249 250 250 250 250 250 250 250 249 249 250 250 250 250 251 251 251 252 252 252 252 252 252 253 253 253 253
251 250 250 250 250 249 249 249 250 249 248 249 246 246 246 246 246 246 245 245 245 245 245 245 246 249 249 247 246 246 246 245 245 245 245 246 247 248 249 250 245 244 255 253 249 246 246 246 247 248 253 254 254 255 256 255 253 251 250 250 250 250 249 249 249 250 249 248 248 249 248 249 249 249 250 250 250 251 251 251 251 251 252 252 252 252 253
250 250 250 250 250 250 249 249 249 249 247 248 249 247 245 244 244 246 246 246 246 247 247 246 245 245 245 245 244 245 246 246 246 246 244 246 247 248 248 249 251 252 255 253 251 249 248 248 248 251 255 256 256 255 255 254 253 251 250 250 250 249 249 248 248 248 248 249 249 248 248 250 249 248 248 249 250 250 251 251 251 251 251 251 251 252 252
250 250 250 250 250 249 250 250 249 249 249 248 245 244 243 243 243 243 244 245 245 246 246 247 247 247 246 245 245 246 247 247 246 245 244 247 246 250 246 252 251 250 252 255 251 250 248 248 252 255 255 256 255 255 255 254 253 252 252 249 248 248 248 248 249 248 249 248 247 249 249 248 247 248 247 248 251 250 250 250 251 251 251 251 251 251 252
249 249 249 249 248 247 248 249 248 247 247 246 242 244 244 242 242 242 242 243 244 245 247 247 247 248 248 246 246 245 244 246 246 247 248 249 249 249 246 252 249 253 254 255 251 250 249 255 255 256 255 255 255 255 254 253 253 252 251 249 247 248 248 247 248 248 247 248 249 248 248 248 247 247 247 247 248 250 250 252 252 250 250 250 251 251 252
249 248 247 246 245 244 244 244 244 244 244 244 243 245 245 243 242 242 242 243 244 244 244 245 247 248 248 247 246 246 246 247 247 249 249 250 252 253 254 255 255 256 254 251 251 250 251 252 254 255 255 255 255 254 252 252 252 252 251 248 248 247 247 247 247 247 246 247 249 250 250 249 248 247 248 249 248 248 249 249 249 249 250 251 251 251 251
247 246 245 244 243 242 242 241 241 240 241 243 242 242 243 242 242 242 243 243 244 244 245 244 245 245 246 245 246 247 248 247 247 249 247 250 251 251 251 250 252 255 255 255 255 255 256 255 255 255 255 255 254 253 252 252 252 251 251 248 247 246 245 246 246 246 247 247 248 247 247 247 247 246 247 247 247 247 248 248 248 249 249 249 249 249 249
245 244 243 242 242 241 241 241 241 243 241 241 241 242 242 242 242 243 244 245 242 243 244 244 244 245 246 248 247 247 248 250 250 250 250 250 251 252 253 255 256 256 255 253 252 252 254 255 255 255 254 254 253 251 250 250 250 250 250 249 248 248 247 247 246 247 246 247 247 247 247 247 247 246 246 247 247 247 248 248 247 247 248 249 249 249 249
242 243 243 242 241 241 241 242 242 242 241 243 242 242 243 244 244 245 246 247 247 250 247 245 245 247 248 247 249 250 250 250 252 253 254 254 255 255 255 253 254 255 255 253 252 253 254 254 254 254 254 254 253 252 252 251 250 252 250 250 250 249 249 250 251 251 249 248 248 247 247 247 247 248 249 246 247 248 247 247 247 249 251 250 248 248 248
244 244 243 244 244 243 242 243 244 242 240 242 242 245 247 246 246 249 248 249 247 248 248 248 248 249 249 248 250 251 252 253 254 255 255 256 256 256 256 255 255 255 255 255 254 254 254 255 254 254 253 253 252 251 251 251 251 251 251 250 250 250 248 249 248 248 246 247 247 247 247 246 246 246 245 246 247 247 247 247 247 247 246 247 247 247 247
244 243 244 244 243 242 241 240 240 242 242 244 244 245 246 247 247 247 247 254 250 248 248 247 250 248 248 249 253 252 253 254 254 255 256 256 256 256 255 256 255 255 255 255 255 255 255 254 254 253 253 253 252 251 251 251 251 250 250 250 250 250 249 249 248 247 246 247 247 247 247 246 245 246 246 245 246 247 247 246 246 246 246 246 246 246 246
Wind_Speed
6 3 3 1 1 2 3 5 8 11 10 5 5 3 7 6 8 13 11 10 9 9 11 7 5 6 6 6 8 7 5 5 5 6 6 5 5 5 4 5 5 4 4 5 5 5 5 4 4 4 4 5 4 4 4 4 3 3 2 1 3 3 4 5 5 5 6 6 6 8 9 10 11 11 10 10 9 8 7 7 8 8 8 8 9 9 8
4 5 3 2 4 3 4 7 10 11 11 10 5 9 11 9 10 12 13 10 14 11 8 4 7 7 4 2 1 4 7 6 7 6 6 5 5 5 6 7 7 7 7 6 6 5 5 5 5 5 5 5 5 5 5 5 3 4 2 2 2 4 4 5 5 6 7 8 9 10 10 11 11 11 11 11 11 11 12 11 10 9 9 10 10 10 11
3 3 2 0 0 2 6 9 11 11 9 7 10 11 7 8 7 10 9 11 14 11 5 4 4 2 4 4 4 5 5 6 6 6 5 5 5 6 6 5 5 6 5 5 5 5 5 6 7 6 4 4 4 4 4 4 4 4 4 5 5 4 5 5 6 6 7 9 9 11 10 10 10 11 12 11 11 11 12 12 13 12 11 12 11 11 12
4 2 3 2 2 4 6 12 17 14 11 12 11 9 8 9 12 11 7 8 11 6 5 4 1 3 3 3 3 3 4 5 5 6 6 5 5 4 4 3 1 0 1 3 4 4 4 4 5 4 3 3 4 4 3 4 4 4 5 4 4 5 5 5 6 8 8 9 10 10 9 9 10 9 10 11 11 12 12 13 13 11 12 12 12 12 11
5 5 5 4 4 3 7 15 20 15 13 11 6 8 8 11 8 8 9 11 6 6 5 7 2 4 3 5 4 4 2 3 5 5 5 5 3 3 1 1 2 1 2 2 2 3 4 4 4 4 4 4 4 3 4 3 3 5 4 4 4 5 6 7 8 8 8 8 9 9 9 8 8 9 10 11 12 13 14 13 12 12 13 13 13 13 12
3 1 3 2 2 4 14 1 4 8 9 7 10 12 13 11 7 8 7 6 4 3 4 6 4 6 6 6 5 4 4 3 4 5 4 4 4 3 3 4 3 3 3 4 5 5 4 3 3 3 4 4 3 3 4 5 6 5 6 6 6 7 7 7 7 8 8 8 9 9 9 10 10 11 11 12 12 11 11 11 12 13 13 14 14 14 14
3 2 4 2 9 15 2 4 5 5 6 6 11 11 9 8 7 7 5 3 4 6 7 7 8 8 4 4 4 3 4 4 5 5 5 5 4 5 4 2 2 4 5 5 4 4 3 3 3 4 5 4 3 5 5 6 4 6 6 7 7 7 8 8 7 7 8 8 9 10 10 10 11 12 12 12 12 11 10 11 13 13 13 14 14 15 15
1 2 5 5 10 4 4 7 3 4 2 6 4 7 7 8 8 8 4 5 6 7 6 4 4 3 1 1 1 3 5 6 6 5 5 5 5 4 5 4 4 6 5 6 5 4 2 5 4 5 4 4 5 5 4 5 5 5 5 6 7 7 7 7 7 8 8 9 9 9 10 11 11 12 12 11 12 12 12 12 12 13 14 13 16 17 16
7 6 9 13 6 13 16 14 5 5 7 4 5 8 8 6 3 4 3 3 3 4 3 4 2 2 2 2 6 3 6 5 5 7 5 7 6 6 4 6 6 5 6 5 4 4 4 5 5 5 3 4 5 5 5 4 4 4 4 5 6 6 5 7 8 8 8 9 10 11 11 11 11 11 11 12 12 10 13 13 13 13 13 14 13 14 16
4 5 6 5 2 8 12 6 0 2 1 6 4 5 5 3 2 2 5 5 6 6 3 3 1 3 2 4 4 1 0 3 3 3 6 5 5 4 6 5 5 5 4 4 4 6 6 6 4 3 3 3 4 4 4 4 4 4 4 5 4 5 6 6 7 8 8 9 10 11 11 11 12 12 11 11 11 10 11 13 14 12 12 13 12 11 13
4 4 7 8 6 9 6 2 2 1 2 6 3 4 6 4 3 3 6 3 6 8 7 4 3 2 3 7 6 6 3 4 3 5 5 4 3 6 8 9 8 6 5 6 6 6 6 5 3 3 3 3 3 3 3 4 3 4 4 4 5 6 7 7 7 7 7 8 9 11 12 12 11 13 13 12 11 10 10 10 11 10 10 11 14 11 10
9 7 6 9 4 4 3 6 3 5 3 2 7 4 7 2 4 5 7 7 9 7 5 5 5 7 7 7 8 5 7 6 5 6 5 4 4 5 5 4 6 6 6 6 5 6 5 3 2 3 3 2 2 3 3 3 4 4 4 5 6 6 7 7 7 7 7 9 9 10 12 13 11 11 11 11 11 11 12 10 12 11 11 12 14 12 11
13 16 9 4 6 4 4 6 5 3 1 1 3 12 10 5 6 6 6 7 10 9 8 6 7 9 9 8 7 5 5 3 3 3 2 5 9 9 7 6 6 6 4 6 6 5 4 3 2 2 2 2 3 2 3 3 4 4 4 5 6 6 7 7 7 7 7 7 10 11 9 11 11 11 10 12 12 12 12 10 9 11 12 12 12 13 10
11 9 10 11 4 5 6 6 9 5 3 4 10 8 4 4 6 6 9 9 8 9 10 9 9 8 7 7 5 4 5 6 4 1 4 5 4 4 4 5 5 6 5 5 5 4 3 3 2 1 1 3 3 3 3 4 3 3 5 6 6 6 7 7 7 7 7 8 8 9 10 10 11 11 10 11 11 12 11 12 14 15 13 13 12 11 9
1 2 8 3 8 3 9 6 3 2 5 7 7 3 3 5 6 7 6 8 9 9 9 9 9 7 5 6 8 8 6 4 4 5 7 8 9 8 6 3 2 5 5 4 4 4 2 2 2 1 2 3 3 3 4 4 3 4 5 5 7 7 8 8 8 8 8 8 9 8 9 10 10 12 11 11 12 12 13 13 13 14 13 12 13 12 11
6 7 7 8 7 4 6 9 7 5 10 8 7 6 6 5 5 6 8 8 10 10 10 9 7 7 7 6 5 5 4 4 4 3 5 5 5 4 3 5 5 4 5 4 3 2 2 1 1 1 2 3 3 4 5 3 4 4 4 5 6 7 8 8 8 8 7 8 9 8 9 10 9 12 12 11 11 11 11 11 11 12 12 11 12 12 12
8 7 6 7 6 6 7 7 7 6 9 7 6 7 7 6 6 6 7 10 10 9 9 8 8 7 7 8 7 6 7 6 6 7 8 8 8 7 7 5 4 3 4 2 2 0 0 1 1 1 1 2 4 5 5 3 4 5 5 6 7 8 9 8 8 8 8 8 9 8 8 9 11 11 12 10 11 10 11 11 10 11 10 10 10 12 13
2 2 3 1 1 1 4 6 7 9 8 6 5 7 6 6 8 8 9 9 10 9 8 8 7 9 8 8 7 6 6 6 5 4 4 4 4 5 5 4 3 3 3 2 1 0 0 0 0 1 1 1 4 5 4 4 5 4 6 7 8 9 9 8 9 9 10 9 7 8 10 9 9 10 10 10 10 11 11 11 11 11 12 11 11 10 11
3 7 5 6 7 5 6 10 9 6 5 8 7 7 8 7 7 7 8 11 11 11 9 10 11 10 9 8 8 7 6 6 6 8 8 7 7 8 5 4 4 2 1 1 2 2 1 0 0 1 2 3 4 4 5 5 5 5 5 7 9 9 9 9 9 8 9 9 9 9 9 9 8 9 9 9 9 11 11 11 11 11 11 11 12 12 13
9 8 3 5 6 9 11 8 6 8 11 11 8 8 8 9 8 8 10 8 8 7 8 11 11 11 9 9 8 6 7 7 8 8 8 8 5 3 5 4 3 2 1 1 3 3 4 1 1 2 3 4 4 4 5 5 4 5 6 7 9 10 10 9 8 8 8 8 10 10 9 9 10 10 8 8 9 11 11 11 12 13 12 13 14 13 13
7 5 6 9 11 10 11 8 7 8 9 10 9 9 10 10 9 9 7 8 11 10 12 11 10 9 9 9 10 9 6 6 6 8 7 6 6 7 4 3 2 0 0 1 2 3 4 2 2 3 4 4 4 5 5 4 4 5 7 7 9 9 9 8 8 7 8 9 9 10 10 9 9 9 10 9 10 11 12 10 10 12 13 13 13 12 11
8 8 9 5 3 8 11 11 12 11 11 9 10 9 8 8 9 9 8 9 9 10 10 10 10 11 10 9 7 8 8 8 8 6 7 6 5 4 3 3 1 1 1 1 2 3 3 2 2 3 4 4 4 5 4 4 4 5 7 8 8 9 8 8 8 8 8 9 9 9 10 10 10 10 14 21 16 12 13 20 28 29 25 17 17 15 14
11 12 14 9 11 12 12 11 7 9 9 9 11 12 12 11 11 10 10 10 7 6 8 8 11 10 10 10 7 6 5 7 7 8 8 7 6 5 3 1 1 1 1 1 1 3 4 2 2 3 5 5 5 5 4 4 4 5 6 7 8 8 8 8 9 10 9 9 9 9 10 10 9 10 11 13 20 24 23 25 26 29 28 30 32 30 22
12 13 12 7 8 11 10 9 9 10 8 8 10 11 11 11 11 10 10 11 12 10 10 7 8 10 9 7 8 8 6 5 7 6 4 4 5 4 3 3 3 2 2 2 3 4 2 2 4 4 6 6 4 5 4 4 4 5 5 6 8 9 9 9 10 9 9 9 10 10 10 9 9 9 10 12 15 21 23 23 27 28 28 29 29 29 30
14 14 13 8 8 10 10 9 7 7 7 7 7 9 10 9 9 9 11 12 11 12 9 9 7 5 7 7 7 9 9 6 6 7 5 5 4 4 3 3 4 4 3 3 3 2 2 3 4 5 7 7 4 4 4 4 5 5 6 6 8 9 9 9 9 10 9 9 9 10 10 11 10 9 10 10 12 15 20 25 27 26 27 28 28 27 29
15 15 14 6 3 8 9 6 8 9 8 7 6 5 8 10 12 9 9 10 9 8 10 9 8 5 6 8 6 5 5 5 7 5 4 4 3 2 3 4 4 2 2 2 2 3 3 4 5 5 7 7 5 4 4 5 5 5 6 7 7 8 8 10 10 9 9 9 10 10 10 10 10 10 10 10 11 12 13 15 19 22 23 24 24 26 27
13 12 8 6 9 13 11 11 13 13 9 7 9 10 8 5 5 4 1 1 2 3 5 6 6 6 3 3 6 4 7 5 4 4 4 4 4 5 3 2 2 2 2 2 3 3 4 4 4 5 8 7 4 4 4 5 5 6 6 7 7 8 11 10 8 8 8 8 9 10 10 10 10 10 10 10 11 11 11 13 13 14 16 18 22 26 24
10 8 9 11 14 15 14 12 10 10 8 7 7 7 4 3 4 5 5 4 2 2 3 4 8 7 7 4 6 4 3 5 7 5 4 5 3 2 2 2 2 1 2 3 4 3 4 5 5 6 9 6 4 4 5 5 5 6 7 7 7 7 7 9 8 8 8 8 9 9 10 10 10 10 10 10 11 11 11 11 12 13 14 13 14 20 29
10 9 9 13 15 14 9 2 1 4 6 2 0 3 6 5 6 6 7 8 6 5 4 2 1 4 7 6 5 7 6 5 5 6 4 2 2 1 1 0 0 1 2 4 4 4 4 4 4 6 9 5 4 4 5 5 5 5 7 6 7 7 7 7 8 8 8 9 9 10 11 11 10 10 10 10 10 10 11 11 11 12 12 13 13 14 17
14 10 7 7 8 6 7 9 10 8 8 6 5 5 7 8 6 7 8 5 5 9 6 5 5 5 4 6 6 7 8 7 6 2 1 1 1 0 0 1 2 3 3 4 5 4 4 4 5 6 8 5 4 4 4 4 5 5 6 7 6 6 6 7 8 9 9 9 10 14 10 9 9 9 10 10 10 10 11 11 12 12 13 13 13 12 13
6 5 7 7 7 6 8 13 11 9 6 4 5 6 4 3 7 7 8 7 5 7 7 8 6 5 5 6 3 3 2 3 2 2 1 0 1 2 1 1 3 4 4 5 4 4 4 5 5 7 6 4 4 5 4 4 5 5 6 6 5 9 13 15 12 9 8 9 10 10 10 9 9 9 10 10 10 10 10 10 11 11 11 11 11 11 11
7 5 3 3 3 6 7 7 6 6 6 4 3 6 10 11 12 14 10 8 9 7 5 5 7 8 4 3 4 4 3 2 1 0 1 2 3 3 3 4 5 6 6 7 6 5 5 4 7 8 4 4 4 4 4 5 5 5 6 6 7 6 7 13 9 8 8 8 9 9 9 9 10 9 9 9 9 10 10 11 11 11 10 11 11 11 12
7 7 6 6 4 4 7 6 7 8 6 8 12 8 4 4 3 2 2 3 3 4 6 6 4 4 5 5 4 4 3 2 1 2 3 4 4 4 4 4 5 5 6 6 6 6 5 6 8 6 5 5 4 4 4 4 4 5 5 6 6 7 7 8 10 9 8 8 7 7 8 8 9 9 8 9 9 10 9 10 10 11 11 11 11 11 12
13 14 15 12 13 13 14 13 9 8 6 6 4 3 4 4 4 3 3 3 4 5 6 6 5 5 5 5 4 4 4 1 3 5 5 5 5 4 4 4 4 5 7 6 6 6 6 7 6 6 5 4 4 4 4 4 4 4 5 6 6 7 7 7 8 7 7 8 8 9 8 9 8 8 9 9 9 8 10 10 10 10 10 10 10 10 15
8 4 1 3 2 3 4 6 7 9 8 8 5 4 4 4 5 5 5 6 7 6 4 6 5 6 6 5 4 4 4 6 5 4 4 3 4 3 4 4 5 5 6 7 7 7 7 6 5 5 5 4 4 4 3 4 4 5 4 5 6 6 6 8 7 7 7 8 7 8 8 8 8 7 9 8 8 9 9 9 9 10 9 10 11 11 12
6 6 3 3 3 4 4 3 4 6 8 8 8 8 7 6 6 5 5 4 4 5 4 5 5 5 4 4 5 5 6 6 5 5 5 5 4 3 3 4 5 6 6 9 8 7 7 5 6 5 3 3 3 3 3 3 4 4 5 5 5 6 7 7 7 6 6 6 7 7 7 9 10 9 9 8 7 8 8 8 9 8 8 9 9 11 10
1 7 6 5 3 4 4 3 1 2 4 4 5 5 5 4 4 3 4 4 3 3 3 4 4 4 5 5 3 3 4 5 4 4 5 3 3 2 3 5 6 7 5 6 5 2 1 1 3 5 2 2 3 3 3 6 4 4 4 4 4 5 6 7 6 6 6 5 6 7 9 8 6 6 8 6 7 7 7 8 9 9 8 8 9 9 10
4 6 7 6 6 6 6 3 2 4 8 9 7 5 5 5 5 4 4 4 3 3 3 3 3 2 2 1 2 4 5 4 4 4 4 4 3 4 5 6 8 6 7 8 3 1 1 2 4 4 2 3 3 3 4 6 7 5 4 4 4 4 6 6 7 7 6 6 7 7 7 7 7 7 7 6 6 7 8 8 8 8 8 9 9 9 9
8 6 7 7 6 7 7 5 5 5 5 10 7 6 4 5 5 4 4 3 1 1 1 1 1 0 1 3 5 5 6 5 4 4 5 6 5 5 8 7 9 8 8 4 3 5 5 5 6 3 3 4 3 3 3 5 7 4 4 3 4 4 5 6 6 7 7 7 6 6 6 6 6 6 6 7 6 7 8 8 8 8 8 8 8 9 9
7 6 7 7 7 5 7 9 7 7 5 4 8 7 4 5 4 4 2 1 0 1 1 0 1 3 4 5 5 7 6 5 5 5 6 6 5 6 7 9 12 11 10 12 9 7 7 8 6 4 4 4 2 3 3 5 6 4 3 4 4 5 5 6 4 5 5 5 6 7 7 7 6 7 7 7 6 7 7 7 7 7 7 7 8 8 9
8 8 6 7 7 5 6 8 8 4 5 5 5 5 4 5 4 4 2 2 1 1 2 3 4 5 5 6 6 7 5 5 5 6 5 3 4 6 7 10 5 4 6 5 5 5 6 5 3 4 4 3 2 3 3 4 3 2 3 3 3 4 5 5 4 4 5 6 7 6 6 6 6 6 7 6 6 5 6 6 6 6 6 7 7 8 8
7 7 8 8 7 7 6 6 7 7 4 4 4 3 4 4 4 3 2 1 1 2 3 4 5 6 5 5 5 5 6 7 6 6 5 7 7 6 8 10 5 7 6 6 4 3 2 2 3 4 3 3 2 4 5 5 3 3 3 3 3 4 4 3 4 4 5 5 5 6 6 6 6 6 6 6 6 6 6 6 6 6 6 6 7 7 7
9 9 9 8 7 7 7 6 6 6 5 4 4 4 4 3 3 2 2 2 2 3 3 4 4 5 5 6 5 6 7 6 7 7 7 9 12 10 10 8 3 4 5 5 2 2 2 3 3 2 3 4 3 5 6 3 2 3 2 3 4 4 3 3 3 3 4 5 5 5 5 6 5 5 6 6 6 6 6 6 6 7 7 7 7 7 7
7 7 7 8 8 7 6 6 5 5 5 4 3 4 4 4 4 4 4 3 3 4 5 5 5 6 6 6 5 6 7 7 7 6 6 7 7 8 13 11 9 8 10 8 3 3 3 3 3 4 5 5 5 6 4 2 3 3 2 3 4 4 4 3 3 3 4 5 5 5 6 7 5 5 5 6 6 6 6 6 6 6 6 7 6 6 6
7 7 7 7 7 7 5 5 6 6 4 3 3 1 1 3 3 3 3 3 3 4 4 5 6 6 6 6 7 8 7 6 6 4 4 6 5 6 2 7 9 5 7 7 4 3 3 3 4 5 4 5 4 5 3 2 3 2 2 2 3 3 3 3 3 3 5 4 4 5 6 5 6 5 5 6 6 5 6 6 6 6 6 6 7 7 7
6 6 6 7 7 5 3 4 3 3 3 2 0 0 1 2 2 2 3 4 4 5 7 6 6 7 7 7 6 6 5 7 7 7 8 8 7 6 1 3 4 4 5 6 2 3 4 5 6 6 6 6 5 3 2 2 3 3 3 4 3 5 3 2 3 4 4 5 5 6 5 5 6 5 5 5 5 5 6 7 7 5 5 6 6 6 7
8 6 5 6 4 4 4 3 2 3 2 3 3 1 0 1 1 2 3 6 5 6 5 6 7 9 8 6 7 6 6 6 6 6 8 8 9 10 11 9 6 5 5 4 4 3 4 3 4 6 6 5 4 2 3 3 3 3 3 3 4 3 3 3 3 5 5 5 6 6 6 6 5 6 6 5 5 5 5 5 6 6 6 7 6 7 7
8 7 7 6 6 5 4 3 3 2 2 2 1 0 1 0 1 2 2 3 5 5 5 5 6 7 7 7 7 7 7 5 6 8 3 6 6 6 6 4 5 4 5 4 5 4 5 6 6 6 5 4 2 2 3 3 3 3 3 3 4 4 4 4 4 4 5 4 4 5 5 5 5 5 5 5 5 5 5 5 5 6 6 5 6 6 6
6 7 7 7 6 7 6 4 3 4 3 3 2 1 1 1 1 2 3 4 6 5 5 6 6 7 6 7 5 7 6 6 8 7 2 1 1 1 2 2 3 5 5 3 3 3 4 5 6 5 5 4 3 3 3 3 3 4 5 5 5 4 3 4 4 5 5 5 5 5 5 5 6 5 6 6 6 5 6 5 5 5 5 6 6 7 6
6 7 6 5 5 5 5 4 4 4 2 3 4 3 0 1 2 3 2 2 4 6 5 5 4 5 5 5 5 5 5 6 7 8 8 8 6 5 3 3 4 5 5 4 3 4 4 5 5 4 3 2 3 3 3 3 3 5 4 5 3 3 3 5 4 5 4 6 5 5 5 6 6 6 7 5 6 5 5 5 5 7 9 7 7 6 6
4 5 5 6 5 5 6 6 4 3 4 3 2 0 0 1 2 4 2 5 3 3 3 5 4 4 5 4 4 5 4 5 5 6 6 4 3 3 4 3 3 4 4 4 3 4 3 3 2 2 3 3 4 3 3 4 4 4 5 3 3 3 3 5 5 5 4 5 5 5 5 6 6 6 6 6 6 5 6 6 6 5 5 5 6 6 6
4 3 2 3 3 2 4 6 3 2 2 1 1 0 1 2 2 2 3 5 2 1 2 4 6 5 3 2 1 2 2 2 3 2 2 3 2 3 4 4 4 4 4 4 3 3 2 2 3 3 4 4 4 4 4 5 5 5 4 5 3 4 4 6 6 5 5 5 6 6 6 6 6 6 6 6 6 6 5 5 5 5 6 6 6 6 6
Wind_Direction
255 252 251 360 57 211 202 240 255 262 265 243 221 221 221 217 227 257 264 273 267 261 257 273 260 229 231 234 243 253 216 158 134 133 146 170 188 206 210 228 228 220 230 228 230 226 222 228 239 253 262 268 267 269 258 251 263 267 261 303 313 336 341 338 323 316 315 312 307 306 308 310 311 311 309 305 299 292 287 286 288 286 285 282 285 285 279
275 275 288 270 227 254 266 254 251 254 256 260 241 241 238 217 238 247 263 269 264 261 266 257 262 268 264 205 149 95 109 139 142 155 177 193 212 216 223 229 229 228 225 227 229 229 235 231 236 248 254 256 250 249 256 263 281 288 11 313 348 343 342 326 321 322 317 314 312 310 310 309 308 307 307 307 307 307 306 302 297 293 289 287 285 286 289
284 256 114 39 68 262 273 275 268 258 264 274 251 256 262 250 249 251 250 259 267 267 268 249 259 106 98 88 115 132 147 147 162 174 195 210 218 227 234 243 246 244 244 233 229 228 236 231 232 243 269 288 315 319 330 344 350 345 30 19 8 350 329 321 320 317 318 314 312 309 306 308 306 306 305 305 304 303 303 302 301 299 294 290 291 291 291
299 268 131 241 255 265 255 267 266 258 248 252 249 246 236 242 247 251 259 253 257 279 294 276 87 99 109 136 130 118 156 169 168 186 208 208 216 224 221 220 207 315 294 289 282 273 300 352 16 24 15 16 42 25 21 30 9 17 22 2 344 325 316 316 319 326 321 312 307 304 307 304 304 304 306 307 305 304 303 301 298 294 291 289 288 288 289
255 265 123 201 244 319 302 253 248 250 246 237 245 246 233 226 236 253 249 249 246 242 234 252 228 127 142 140 160 140 157 193 185 197 208 211 218 224 232 76 91 114 82 51 52 77 94 92 65 43 69 60 40 15 25 348 4 6 349 341 329 325 324 333 331 324 316 310 308 309 311 311 310 311 310 307 306 304 300 298 298 295 293 294 292 291 289
236 262 96 90 116 254 243 243 161 198 225 219 228 240 243 245 209 225 224 249 236 207 196 199 190 188 198 181 217 181 171 198 233 241 217 211 206 196 184 180 164 120 116 101 105 114 121 120 108 80 62 60 28 23 11 2 7 352 353 342 343 330 328 328 325 319 316 316 313 314 318 318 317 313 310 304 301 299 299 301 299 299 298 297 296 294 293
231 127 95 214 221 242 274 172 189 181 195 202 228 242 242 246 241 250 271 266 209 203 191 201 204 204 214 185 180 207 222 195 219 225 232 220 191 175 175 173 127 126 134 130 128 110 95 77 62 70 45 32 18 22 9 1 357 357 346 338 331 327 321 321 324 322 322 320 318 318 319 318 315 310 307 306 306 309 311 306 305 303 302 302 298 296 296
21 160 203 233 231 243 326 284 323 295 209 232 240 286 270 255 235 223 224 245 231 224 227 225 186 166 234 339 248 219 240 204 210 215 224 213 181 180 193 168 155 147 152 142 135 129 109 72 68 63 47 20 25 7 3 358 350 345 333 324 316 316 315 322 328 330 329 322 320 321 318 314 310 307 308 311 315 318 311 303 300 299 296 297 296 296 296
200 223 212 237 344 321 294 285 257 184 230 212 166 239 261 241 229 160 177 213 226 174 198 177 190 27 40 8 307 268 241 250 222 210 215 179 197 188 187 145 152 157 148 144 138 114 90 80 67 48 32 29 19 2 353 338 332 321 318 309 307 314 321 329 331 333 334 326 320 318 315 312 309 311 314 313 310 311 303 301 300 299 298 295 295 296 296
197 151 248 295 306 254 260 248 238 359 120 121 135 103 294 291 283 195 156 193 199 180 174 165 127 74 56 317 279 281 275 219 182 217 193 200 187 151 123 127 138 148 145 121 118 113 102 79 66 48 37 37 16 349 325 321 319 306 307 300 317 329 331 332 331 333 329 324 317 315 314 311 311 309 309 304 301 305 299 301 298 298 301 298 295 295 296
232 210 216 222 226 242 215 243 197 202 148 116 115 63 286 267 217 230 174 175 188 182 170 195 123 110 214 247 244 250 247 249 208 177 220 190 179 148 154 152 155 155 148 128 115 100 95 84 58 57 42 34 356 327 315 309 304 305 309 322 341 337 329 328 326 324 320 315 310 308 307 305 307 306 305 302 299 297 289 289 287 291 290 290 289 287 287
218 220 229 234 222 244 268 207 215 200 147 96 55 346 271 227 233 198 161 174 185 198 192 154 151 158 210 243 253 217 213 207 208 172 199 149 138 150 155 162 151 143 132 111 96 98 100 96 91 57 40 13 329 306 308 303 312 317 330 345 338 327 321 318 316 312 310 306 303 303 302 302 300 297 299 299 297 297 292 286 288 288 285 283 284 287 290
227 225 241 281 276 241 190 198 224 202 139 70 248 245 240 235 210 204 186 189 190 177 179 171 178 223 199 206 223 215 206 215 254 244 215 174 168 163 164 153 132 118 110 111 120 122 109 94 75 49 25 4 326 311 307 318 315 328 340 335 324 315 310 306 304 302 299 299 299 297 293 294 297 297 296 295 298 296 293 288 277 282 285 281 281 283 282
225 225 228 235 266 238 174 246 170 164 91 213 222 237 196 166 213 202 189 192 195 179 184 191 205 220 220 228 245 237 223 209 235 182 151 122 109 96 114 128 125 121 115 112 111 102 93 81 72 39 31 351 315 312 314 309 311 331 328 317 310 306 304 302 299 296 296 294 289 291 294 293 295 294 291 290 292 293 290 291 291 289 287 286 284 283 278
246 159 239 257 258 265 161 154 40 229 160 228 207 196 243 188 194 184 204 194 209 184 208 210 211 229 236 224 225 220 222 209 222 171 170 169 164 157 143 111 113 126 123 122 125 123 105 92 62 16 27 337 313 314 311 302 322 317 310 309 306 305 303 299 298 297 296 293 294 294 292 292 292 293 294 293 292 289 290 290 288 288 287 286 288 287 287
166 181 207 206 211 215 184 147 186 216 205 200 181 155 219 237 195 191 199 215 210 202 198 211 226 227 231 247 241 242 247 231 239 197 182 163 137 119 105 128 145 133 126 129 124 113 108 88 55 17 355 326 315 317 300 305 310 307 306 306 307 304 299 297 299 297 295 294 291 290 291 293 292 292 295 293 291 290 289 288 289 290 290 290 293 293 293
153 200 211 237 217 191 192 180 198 210 224 216 195 182 196 193 228 206 198 218 223 207 204 213 212 229 221 219 213 200 222 216 201 190 187 175 168 161 156 152 145 117 123 121 117 109 130 90 10 349 327 327 308 303 297 314 305 307 308 310 308 301 298 298 297 296 296 292 292 289 292 297 298 294 291 293 295 292 293 292 288 288 287 289 289 292 293
126 247 182 201 282 190 173 236 210 212 235 242 203 198 212 226 215 183 197 219 221 219 203 203 230 221 219 211 223 222 226 224 216 168 135 126 131 134 131 138 135 130 125 117 111 136 236 163 347 306 312 316 304 287 299 300 298 301 311 311 304 299 299 298 299 301 299 293 288 295 297 293 285 284 288 295 293 294 294 291 291 289 290 291 286 283 281
43 269 151 188 233 250 234 223 237 248 235 231 211 201 209 223 217 214 217 211 213 213 200 203 212 218 211 210 215 211 216 207 182 174 174 174 171 166 159 161 142 107 80 10 335 324 313 241 314 302 303 285 267 282 288 292 299 307 306 301 296 297 300 302 301 299 296 302 307 305 297 292 286 285 287 285 288 291 291 292 291 288 287 286 285 283 281
222 244 202 218 224 224 238 227 209 231 238 243 241 218 217 223 229 216 217 210 225 212 211 208 206 216 209 204 215 212 208 199 190 183 177 168 152 148 143 140 120 112 78 344 308 309 304 292 321 300 293 281 276 276 280 288 300 308 302 295 297 300 302 302 300 299 297 298 303 303 297 296 295 292 283 282 285 288 290 290 291 289 288 286 284 282 282
249 279 265 249 252 262 265 252 229 225 222 224 236 236 236 238 241 242 235 204 213 207 216 208 205 212 218 205 207 210 206 193 188 188 177 173 164 156 144 144 120 124 175 254 262 272 280 294 298 296 281 279 277 278 284 295 305 307 297 296 295 297 299 301 300 300 299 303 302 298 296 290 280 281 287 285 280 279 276 269 273 279 282 283 284 286 284
249 240 240 189 221 254 252 250 236 232 231 224 229 236 240 238 238 237 234 238 229 219 215 202 196 204 215 214 201 208 203 197 188 168 161 157 151 149 142 127 127 144 179 210 245 271 279 284 280 277 280 279 275 275 282 289 297 295 295 301 302 302 304 304 303 305 306 305 302 298 294 294 292 284 282 293 294 293 291 293 296 296 296 295 295 298 297
248 247 246 211 223 245 248 249 240 228 230 220 223 231 236 237 230 224 218 232 241 231 233 211 194 203 204 213 195 195 192 197 179 170 162 163 166 164 151 125 186 191 207 200 252 275 274 266 271 278 285 281 280 281 286 295 290 284 291 301 301 301 308 307 306 308 308 306 303 297 294 294 292 295 302 299 299 301 299 299 300 301 301 301 302 303 302
252 254 253 213 201 232 249 244 239 238 229 215 223 229 229 233 231 225 219 218 215 220 218 214 204 198 203 195 172 195 192 163 153 153 148 142 151 153 158 173 195 195 221 236 247 258 262 276 287 287 285 283 278 285 294 291 281 279 287 295 301 303 305 304 306 306 305 303 301 298 297 294 295 299 301 307 307 307 307 306 305 304 303 304 305 305 305
245 246 253 232 215 234 243 241 234 234 234 209 219 230 226 231 236 221 217 223 221 212 201 212 223 198 184 189 179 185 183 178 165 154 149 145 154 160 181 186 204 208 221 224 233 244 263 275 281 282 282 283 285 293 295 286 282 288 290 293 296 299 301 303 302 303 304 304 301 300 300 302 302 303 304 306 306 309 312 311 310 307 306 307 308 308 308
242 250 255 250 211 239 250 272 271 253 246 229 226 242 236 227 233 231 223 220 216 207 203 199 193 210 177 173 177 157 145 161 155 136 143 163 168 177 203 213 218 200 208 215 239 250 262 266 270 277 280 284 292 295 289 283 286 285 288 287 289 293 300 303 303 303 305 303 302 299 297 297 296 300 298 297 297 299 305 312 318 317 313 312 312 314 313
236 239 245 280 270 261 249 237 251 255 251 235 223 236 240 227 218 196 146 115 166 173 186 184 168 147 115 138 138 151 165 148 135 156 167 180 199 210 206 192 187 203 217 240 251 254 258 271 277 279 278 283 288 284 283 285 288 288 289 293 294 289 290 294 291 295 298 300 298 296 295 295 295 297 297 297 298 299 301 305 306 306 309 314 315 318 318
234 221 184 216 240 247 251 244 241 252 255 246 241 232 192 113 120 136 150 145 129 85 77 128 141 146 151 161 146 143 128 161 188 185 184 210 203 176 172 180 201 219 240 251 256 259 264 266 268 274 277 282 284 283 283 283 286 290 297 299 297 297 302 301 298 294 298 297 294 293 293 291 294 297 300 301 302 300 301 298 298 299 301 304 304 311 315
233 218 208 217 232 244 261 313 267 237 246 281 56 132 135 154 187 187 201 195 173 139 153 153 139 161 159 170 167 176 184 184 193 203 204 169 164 166 161 150 291 290 281 273 270 259 260 261 261 270 280 288 288 283 282 287 289 295 301 300 299 301 302 302 299 299 301 298 292 293 297 300 301 301 300 301 300 301 301 303 303 303 303 307 311 312 318
237 230 220 228 236 250 258 260 250 244 233 206 171 190 191 177 185 217 214 192 172 193 191 147 147 178 161 166 187 185 188 198 192 165 147 157 132 122 67 334 331 298 282 272 260 249 245 254 264 271 278 293 292 287 285 289 292 293 290 291 288 292 294 299 303 304 304 303 302 305 303 300 300 301 303 303 305 307 308 308 311 311 310 312 316 314 320
240 220 223 231 235 231 227 240 245 243 223 200 199 186 196 202 219 219 216 203 196 203 172 182 183 169 185 189 157 131 111 109 116 123 110 255 271 268 260 240 243 262 255 260 262 252 255 263 261 266 273 281 285 282 287 296 297 299 296 295 290 300 306 307 307 305 304 305 306 308 306 306 307 309 310 311 313 313 313 311 312 312 310 311 314 318 321
249 220 214 234 221 228 241 253 256 239 214 180 156 195 197 190 206 217 209 196 210 200 172 171 189 197 173 126 124 117 110 107 99 240 262 265 258 249 240 234 238 247 251 259 264 263 258 262 270 268 276 276 277 279 291 297 295 301 300 306 305 308 307 310 306 305 305 302 302 302 302 307 311 313 312 314 316 317 317 316 315 316 315 317 320 322 323
222 246 262 246 254 254 252 244 211 233 196 195 211 217 213 231 259 272 219 177 134 164 179 193 167 136 138 134 125 127 129 121 138 250 264 265 264 258 251 241 235 242 249 249 249 250 250 258 266 280 286 281 285 289 289 288 293 296 297 300 299 301 305 307 308 308 305 300 297 297 303 307 306 308 309 313 317 317 316 315 316 317 319 321 320 320 324
206 215 225 217 196 210 220 233 213 227 228 225 220 198 194 192 189 163 143 144 156 167 183 168 149 143 136 138 144 144 136 138 253 248 240 249 254 256 245 241 246 249 256 264 264 259 252 251 259 272 276 283 284 285 284 292 295 293 291 296 299 303 308 307 310 306 305 307 305 307 304 305 307 310 314 318 318 319 320 320 321 321 321 324 323 323 329
215 220 147 137 147 192 187 194 187 202 206 209 210 196 180 162 164 170 163 162 177 175 145 134 137 138 138 143 153 170 176 212 230 234 238 238 251 257 267 277 284 284 280 269 255 256 249 250 248 252 261 268 273 273 279 292 287 287 290 292 296 300 303 306 305 306 310 309 311 311 314 313 312 314 317 317 319 319 318 319 321 323 325 327 327 330 330
138 137 121 103 112 123 123 150 180 183 187 199 196 182 176 175 158 153 156 152 112 115 121 128 129 129 145 166 189 194 211 223 228 235 246 249 253 257 267 268 274 281 284 289 270 244 246 237 234 239 258 274 281 279 283 280 283 285 292 298 303 306 304 300 298 300 301 307 311 312 308 311 316 316 318 319 318 318 318 320 322 326 327 328 329 332 331
123 153 147 136 119 110 98 74 35 158 156 153 143 146 137 127 129 102 90 101 102 106 122 125 128 162 200 206 204 212 221 222 223 226 232 236 244 259 265 273 271 265 269 281 273 256 215 202 235 270 283 280 275 275 278 300 297 293 299 304 302 304 307 305 302 306 310 313 310 310 310 312 311 312 315 317 317 321 322 323 326 327 330 331 333 333 337
80 109 131 133 132 108 87 64 45 86 99 77 58 86 122 121 111 111 106 103 99 99 105 132 163 180 190 202 227 234 242 239 236 242 247 257 251 255 259 247 257 239 239 236 239 232 236 274 297 297 283 268 268 274 285 307 316 314 304 303 304 306 305 299 304 308 315 315 317 312 308 312 315 317 318 317 318 323 325 325 326 330 332 334 334 336 338
97 82 89 100 101 101 103 77 59 49 86 114 107 88 89 106 104 102 102 100 79 72 76 73 67 66 255 243 254 259 259 257 254 251 257 259 253 233 246 239 246 234 240 248 258 267 277 287 275 275 275 267 273 280 295 308 317 312 300 305 305 302 297 298 303 308 311 315 316 311 314 313 312 312 315 317 321 326 329 329 330 331 334 333 336 338 338
125 122 128 122 110 112 98 83 73 79 75 97 119 128 127 107 107 108 107 94 50 113 125 117 191 236 252 249 254 261 264 265 258 250 251 254 262 269 277 270 256 255 249 254 254 256 253 251 256 260 262 259 264 276 280 304 315 310 312 303 302 299 293 296 304 310 314 320 313 316 314 314 315 315 314 316 321 323 326 327 332 333 335 335 336 336 336
132 131 126 117 121 119 118 116 107 97 99 97 100 117 123 129 134 119 150 183 230 131 183 189 204 237 237 240 241 250 263 265 252 240 237 240 264 257 262 272 258 237 246 236 227 218 223 227 224 246 255 257 255 275 288 299 305 296 295 298 297 292 295 305 310 320 321 317 314 313 312 313 312 315 313 318 319 319 320 325 330 330 330 333 334 334 336
139 132 126 123 123 126 122 121 118 111 110 123 137 129 132 143 142 172 186 183 194 206 209 230 220 231 244 249 254 259 261 258 261 258 232 222 237 240 250 261 254 248 236 217 192 191 208 227 240 241 249 260 260 275 296 307 299 290 289 292 284 281 290 299 309 312 312 307 298 297 301 302 307 312 316 320 324 325 327 328 329 330 333 332 333 333 333
143 141 137 134 131 132 136 134 134 137 134 144 152 166 168 153 152 154 166 190 204 227 233 244 251 257 257 255 254 260 261 264 262 262 263 250 233 227 231 256 263 277 236 192 193 191 219 222 225 231 246 254 264 293 309 296 278 280 284 283 284 285 287 291 300 308 312 305 304 302 304 307 315 318 321 321 317 317 321 327 327 328 330 328 327 331 335
136 130 134 135 132 128 127 125 124 123 128 149 153 140 147 163 167 181 191 202 223 226 227 244 244 247 247 244 240 251 256 251 255 251 248 276 283 245 224 237 248 241 245 255 255 240 235 229 223 233 252 269 286 302 298 278 278 276 273 279 285 292 299 308 315 316 304 302 301 301 301 308 311 310 315 317 315 319 320 320 319 322 323 322 320 322 325
134 134 134 132 129 127 132 137 149 160 152 130 107 122 161 191 207 191 184 204 226 245 242 245 246 247 242 230 228 233 238 234 231 223 233 266 275 286 244 211 229 234 233 227 218 227 235 229 237 247 251 261 276 296 285 268 272 269 274 282 284 287 292 301 305 304 298 294 289 291 295 295 294 300 303 301 305 310 314 318 318 321 321 323 326 328 331
111 106 111 114 117 125 120 114 98 89 95 82 14 328 234 195 197 197 186 198 221 237 232 234 236 243 242 239 244 248 249 250 243 229 229 226 236 245 247 220 199 204 206 220 229 233 232 241 250 257 262 261 270 276 251 254 257 260 262 266 269 273 282 290 296 289 287 286 291 291 290 290 294 297 296 295 299 305 308 313 314 314 314 314 316 318 318
110 109 108 112 111 105 96 94 100 92 95 79 72 84 191 203 202 197 207 205 214 236 243 239 242 249 244 232 233 253 267 275 277 243 231 240 243 253 256 250 228 221 222 222 227 232 229 233 246 252 256 258 270 255 242 246 247 247 253 259 259 263 270 272 277 278 278 281 285 287 294 293 293 292 299 301 303 305 310 314 315 315 316 319 318 321 320
133 132 132 131 133 131 109 108 106 120 138 176 193 235 256 217 242 257 245 225 228 241 248 249 246 252 248 242 234 225 225 222 272 284 230 231 243 242 249 240 238 233 237 237 240 236 244 252 258 262 263 264 259 229 237 245 246 245 250 254 254 254 253 261 271 272 280 282 288 292 296 298 296 294 292 291 293 298 296 301 304 309 312 315 314 314 316
122 130 133 126 127 129 134 141 146 179 222 226 190 241 239 255 298 318 307 281 262 260 257 257 253 256 257 241 226 227 221 207 203 239 268 220 210 190 235 242 251 251 250 242 245 248 242 243 250 257 262 264 241 239 242 245 248 252 248 250 248 245 247 252 254 259 264 273 275 280 283 284 287 290 293 295 296 294 298 299 298 294 299 307 309 310 311
118 112 123 139 149 159 165 166 190 207 219 171 195 228 205 86 11 310 270 277 273 268 267 266 262 261 256 253 234 222 209 205 220 235 251 258 263 258 252 249 250 251 246 239 242 248 237 246 255 260 257 242 224 242 247 251 247 248 246 248 247 256 250 257 263 266 264 269 273 274 277 280 281 282 285 287 286 289 290 290 292 295 303 304 298 300 304
147 153 174 179 192 191 188 184 190 190 191 198 201 201 173 178 205 254 269 277 292 303 293 300 299 291 290 272 240 224 214 214 220 229 238 251 252 262 263 255 248 242 238 239 245 248 246 234 240 251 256 253 250 250 248 254 254 253 251 255 257 263 266 267 264 265 262 259 259 264 268 275 274 279 275 276 281 287 289 294 295 297 296 293 294 294 294
170 171 158 161 169 178 189 230 242 215 194 195 163 205 231 218 237 265 286 286 287 286 304 325 318 301 285 262 228 225 210 201 215 222 249 254 259 255 256 252 253 246 242 240 245 246 243 254 261 261 263 261 258 259 260 256 257 257 257 258 263 264 261 261 258 259 262 260 259 263 262 261 264 269 272 272 273 277 284 285 286 287 290 289 288 290 291